BEIDOU-3 IGSO-2

Last updated on Nov. 24, 2019, 4:21 a.m. UTC

1 44337U 19035A   19327.43229736 -.00000046  00000-0  00000+0 0  9997
2 44337  55.0494 180.2052 0011970 169.1767 333.8059  1.00253730  1657
UTC
Height (km)
Latitude
Longitude
Inclination
Orbital Period
UTC large
Height (km)
Speed (km/s)
/
Latitude / Longitude
Inclination (degrees)
Orbital Period (minutes)
Azimuth
Elevation
Range (km)
Doppler Factor
iOS Compass Heading
iOS Angle

Next 30 passes for location: Hong Kong

Rise time Rise Azimuth (degrees) Set time Set Azimuth (degrees) Duration Max altitude (degrees)

No matching passes for this satellites